Time,TemperatureF,DewpointF,PressureIn,WindDirection,WindDirectionDegrees,WindSpeedMPH,WindSpeedGustMPH,Humidity,HourlyPrecipIn,Conditions,Clouds,dailyrainin,SoftwareType,DateUTC
2013-08-13 00:00:00,65.6,64.4,29.93,West,278,0.0,0.0,96,0.00,,---,0.03,VWS V14.01,2013-08-13 04:00:00,
2013-08-13 00:01:00,64.7,63.5,29.92,West,278,0.0,0.0,96,0.00,,---,0.00,VWS V14.01,2013-08-13 04:01:00,
2013-08-13 00:06:00,64.6,63.7,29.92,West,278,0.0,0.0,97,0.00,,---,0.00,VWS V14.01,2013-08-13 04:06:00,
2013-08-13 00:11:00,64.7,63.8,29.92,West,278,0.0,0.0,97,0.00,,---,0.00,VWS V14.01,2013-08-13 04:11:00,
2013-08-13 00:16:00,64.7,63.8,29.91,West,278,0.0,0.0,97,0.00,,---,0.00,VWS V14.01,2013-08-13 04:16:00,
2013-08-13 00:21:00,64.7,63.8,29.91,West,278,0.0,0.0,97,0.00,,---,0.00,VWS V14.01,2013-08-13 04:21:00,
2013-08-13 00:26:00,64.6,63.7,29.91,West,278,0.0,0.0,97,0.00,,---,0.00,VWS V14.01,2013-08-13 04:26:00,
2013-08-13 00:30:00,65.3,64.1,29.93,West,278,0.0,0.0,96,0.00,,---,0.03,VWS V14.01,2013-08-13 04:30:00,
2013-08-13 00:31:00,64.5,63.6,29.91,West,278,0.0,0.0,97,0.00,,---,0.00,VWS V14.01,2013-08-13 04:31:00,
2013-08-13 00:36:00,64.5,63.6,29.91,West,278,0.0,0.0,97,0.00,,---,0.00,VWS V14.01,2013-08-13 04:36:00,
2013-08-13 00:41:00,64.4,63.5,29.91,West,278,0.0,1.0,97,0.00,,---,0.00,VWS V14.01,2013-08-13 04:41:00,
2013-08-13 00:46:00,64.3,63.4,29.91,West,278,0.0,1.0,97,0.00,,---,0.00,VWS V14.01,2013-08-13 04:46:00,
2013-08-13 00:51:00,64.3,63.4,29.91,West,278,0.0,1.0,97,0.00,,---,0.00,VWS V14.01,2013-08-13 04:51:00,
2013-08-13 00:56:00,64.3,63.4,29.90,West,278,0.0,1.0,97,0.00,,---,0.00,VWS V14.01,2013-08-13 04:56:00,
2013-08-13 01:00:00,64.7,63.5,29.92,West,278,0.0,0.0,96,0.00,,---,0.00,VWS V14.01,2013-08-13 05:00:00,
2013-08-13 01:01:00,64.2,63.3,29.90,West,279,0.0,0.0,97,0.00,,---,0.00,VWS V14.01,2013-08-13 05:01:00,
2013-08-13 01:06:00,64.2,63.3,29.90,West,279,0.0,0.0,97,0.00,,---,0.00,VWS V14.01,2013-08-13 05:06:00,
2013-08-13 01:11:00,64.2,63.3,29.89,West,279,0.0,0.0,97,0.00,,---,0.00,VWS V14.01,2013-08-13 05:11:00,
2013-08-13 01:16:00,64.1,63.2,29.89,West,278,0.0,0.0,97,0.00,,---,0.00,VWS V14.01,2013-08-13 05:16:00,
2013-08-13 01:21:00,64.1,63.2,29.89,West,279,0.0,0.0,97,0.00,,---,0.00,VWS V14.01,2013-08-13 05:21:00,
2013-08-13 01:26:00,64.2,63.3,29.89,West,279,0.0,0.0,97,0.00,,---,0.00,VWS V14.01,2013-08-13 05:26:00,
2013-08-13 01:30:00,64.6,63.7,29.91,West,278,0.0,0.0,97,0.00,,---,0.00,VWS V14.01,2013-08-13 05:30:00,
2013-08-13 01:31:00,64.3,63.7,29.89,West,278,0.0,0.0,98,0.00,,---,0.00,VWS V14.01,2013-08-13 05:31:00,
2013-08-13 01:36:00,64.4,63.8,29.89,West,278,0.0,0.0,98,0.00,,---,0.00,VWS V14.01,2013-08-13 05:36:00,
2013-08-13 01:41:00,64.3,63.7,29.89,West,278,0.0,0.0,98,0.00,,---,0.00,VWS V14.01,2013-08-13 05:41:00,
2013-08-13 01:46:00,64.3,63.7,29.88,West,279,0.0,0.0,98,0.00,,---,0.00,VWS V14.01,2013-08-13 05:46:00,
2013-08-13 01:51:00,64.2,63.3,29.88,West,278,0.0,0.0,97,0.00,,---,0.00,VWS V14.01,2013-08-13 05:51:00,
2013-08-13 01:56:00,64.1,63.2,29.87,West,279,0.0,0.0,97,0.00,,---,0.00,VWS V14.01,2013-08-13 05:56:00,
2013-08-13 02:00:00,64.2,63.3,29.90,West,278,0.0,1.0,97,0.00,,---,0.00,VWS V14.01,2013-08-13 06:00:00,
2013-08-13 02:01:00,63.9,63.0,29.87,West,278,0.0,0.0,97,0.00,,---,0.00,VWS V14.01,2013-08-13 06:01:00,
2013-08-13 02:06:00,63.7,62.8,29.87,West,278,0.0,0.0,97,0.00,,---,0.00,VWS V14.01,2013-08-13 06:06:00,
2013-08-13 02:11:00,63.7,62.8,29.87,West,278,0.0,0.0,97,0.00,,---,0.00,VWS V14.01,2013-08-13 06:11:00,
2013-08-13 02:16:00,63.6,62.7,29.86,West,279,0.0,0.0,97,0.00,,---,0.00,VWS V14.01,2013-08-13 06:16:00,
2013-08-13 02:21:00,63.6,62.7,29.86,West,278,0.0,0.0,97,0.00,,---,0.00,VWS V14.01,2013-08-13 06:21:00,
2013-08-13 02:26:00,63.6,62.7,29.86,West,278,0.0,0.0,97,0.00,,---,0.00,VWS V14.01,2013-08-13 06:26:00,
2013-08-13 02:30:00,64.3,63.7,29.89,West,278,0.0,0.0,98,0.00,,---,0.00,VWS V14.01,2013-08-13 06:30:00,
2013-08-13 02:31:00,63.6,62.7,29.86,West,278,0.0,0.0,97,0.00,,---,0.00,VWS V14.01,2013-08-13 06:31:00,
2013-08-13 02:36:00,63.6,62.7,29.86,West,278,0.0,0.0,97,0.00,,---,0.00,VWS V14.01,2013-08-13 06:36:00,
2013-08-13 02:41:00,63.6,62.7,29.85,West,279,0.0,0.0,97,0.00,,---,0.00,VWS V14.01,2013-08-13 06:41:00,
2013-08-13 02:46:00,63.6,62.7,29.85,West,279,0.0,0.0,97,0.00,,---,0.00,VWS V14.01,2013-08-13 06:46:00,
2013-08-13 02:51:00,63.5,62.6,29.85,West,279,0.0,0.0,97,0.00,,---,0.00,VWS V14.01,2013-08-13 06:51:00,
2013-08-13 02:56:00,63.6,63.0,29.85,West,278,0.0,0.0,98,0.00,,---,0.00,VWS V14.01,2013-08-13 06:56:00,
2013-08-13 03:00:00,64.0,63.1,29.87,West,278,0.0,0.0,97,0.00,,---,0.00,VWS V14.01,2013-08-13 07:00:00,
2013-08-13 03:01:00,63.7,63.1,29.85,West,279,0.0,0.0,98,0.00,,---,0.00,VWS V14.01,2013-08-13 07:01:00,
2013-08-13 03:06:00,63.8,63.2,29.84,West,279,0.0,0.0,98,0.00,,---,0.00,VWS V14.01,2013-08-13 07:06:00,
2013-08-13 03:11:00,63.9,63.3,29.84,West,279,0.0,0.0,98,0.00,,---,0.00,VWS V14.01,2013-08-13 07:11:00,
2013-08-13 03:16:00,63.9,63.3,29.83,West,279,0.0,0.0,98,0.00,,---,0.00,VWS V14.01,2013-08-13 07:16:00,
2013-08-13 03:21:00,64.0,63.4,29.84,West,278,0.0,0.0,98,0.00,,---,0.00,VWS V14.01,2013-08-13 07:21:00,
2013-08-13 03:26:00,64.0,63.4,29.83,West,278,0.0,0.0,98,0.00,,---,0.00,VWS V14.01,2013-08-13 07:26:00,
2013-08-13 03:30:00,63.6,62.7,29.86,West,278,0.0,0.0,97,0.00,,---,0.00,VWS V14.01,2013-08-13 07:30:00,
2013-08-13 03:31:00,64.0,63.4,29.83,West,279,0.0,0.0,98,0.00,,---,0.00,VWS V14.01,2013-08-13 07:31:00,
2013-08-13 03:36:00,64.1,63.5,29.83,West,278,0.0,0.0,98,0.00,,---,0.00,VWS V14.01,2013-08-13 07:36:00,
2013-08-13 03:41:00,64.2,63.6,29.83,West,278,0.0,0.0,98,0.00,,---,0.00,VWS V14.01,2013-08-13 07:41:00,
2013-08-13 03:46:00,64.2,63.6,29.83,West,278,0.0,0.0,98,0.00,,---,0.00,VWS V14.01,2013-08-13 07:46:00,
2013-08-13 03:51:00,64.3,63.7,29.82,West,278,0.0,0.0,98,0.00,,---,0.00,VWS V14.01,2013-08-13 07:51:00,
2013-08-13 03:56:00,64.3,63.7,29.82,West,278,0.0,1.0,98,0.00,,---,0.00,VWS V14.01,2013-08-13 07:56:00,
2013-08-13 04:00:00,63.7,63.1,29.85,West,279,0.0,0.0,98,0.00,,---,0.00,VWS V14.01,2013-08-13 08:00:00,
2013-08-13 04:01:00,64.2,63.6,29.82,West,279,0.0,0.0,98,0.00,,---,0.00,VWS V14.01,2013-08-13 08:01:00,
2013-08-13 04:06:00,64.1,63.5,29.82,West,278,0.0,0.0,98,0.00,,---,0.00,VWS V14.01,2013-08-13 08:06:00,
2013-08-13 04:11:00,64.2,63.6,29.81,West,279,0.0,0.0,98,0.00,,---,0.00,VWS V14.01,2013-08-13 08:11:00,
2013-08-13 04:16:00,64.2,63.6,29.81,West,279,0.0,0.0,98,0.00,,---,0.00,VWS V14.01,2013-08-13 08:16:00,
2013-08-13 04:21:00,64.2,63.6,29.81,West,279,0.0,0.0,98,0.00,,---,0.00,VWS V14.01,2013-08-13 08:21:00,
2013-08-13 04:26:00,64.2,63.6,29.80,West,278,0.0,0.0,98,0.00,,---,0.00,VWS V14.01,2013-08-13 08:26:00,
2013-08-13 04:30:00,64.0,63.4,29.83,West,278,0.0,0.0,98,0.00,,---,0.00,VWS V14.01,2013-08-13 08:30:00,
2013-08-13 04:31:00,64.3,63.7,29.80,West,278,0.0,0.0,98,0.00,,---,0.00,VWS V14.01,2013-08-13 08:31:00,
2013-08-13 04:36:00,64.3,63.7,29.80,West,278,0.0,0.0,98,0.00,,---,0.00,VWS V14.01,2013-08-13 08:36:00,
2013-08-13 04:41:00,64.3,63.7,29.80,West,279,0.0,0.0,98,0.00,,---,0.00,VWS V14.01,2013-08-13 08:41:00,
2013-08-13 04:46:00,64.3,63.7,29.80,West,278,0.0,1.0,98,0.00,,---,0.00,VWS V14.01,2013-08-13 08:46:00,
2013-08-13 04:51:00,64.1,63.5,29.80,West,279,0.0,1.0,98,0.01,,---,0.01,VWS V14.01,2013-08-13 08:51:00,
2013-08-13 04:56:00,64.1,63.5,29.80,West,280,0.0,1.0,98,0.01,,---,0.01,VWS V14.01,2013-08-13 08:56:00,
2013-08-13 05:00:00,64.2,63.6,29.82,West,278,0.0,1.0,98,0.00,,---,0.00,VWS V14.01,2013-08-13 09:00:00,
2013-08-13 05:01:00,64.0,63.4,29.80,West,280,0.0,0.0,98,0.01,,---,0.01,VWS V14.01,2013-08-13 09:01:00,
2013-08-13 05:06:00,64.0,63.4,29.79,West,280,0.0,0.0,98,0.01,,---,0.01,VWS V14.01,2013-08-13 09:06:00,
2013-08-13 05:11:00,64.0,63.4,29.79,West,280,0.0,0.0,98,0.01,,---,0.01,VWS V14.01,2013-08-13 09:11:00,
2013-08-13 05:16:00,64.1,63.5,29.79,West,280,0.0,0.0,98,0.03,,---,0.03,VWS V14.01,2013-08-13 09:16:00,
2013-08-13 05:21:00,64.3,63.7,29.80,SW,226,0.0,1.0,98,0.03,,---,0.03,VWS V14.01,2013-08-13 09:21:00,
2013-08-13 05:26:00,64.5,64.2,29.80,West,278,0.0,1.0,99,0.04,,---,0.04,VWS V14.01,2013-08-13 09:26:00,
2013-08-13 05:30:00,64.3,63.7,29.80,West,279,0.0,0.0,98,0.00,,---,0.00,VWS V14.01,2013-08-13 09:30:00,
2013-08-13 05:31:00,64.6,64.3,29.80,NNW,347,0.0,0.0,99,0.04,,---,0.04,VWS V14.01,2013-08-13 09:31:00,
2013-08-13 05:36:00,64.6,64.3,29.80,NNW,347,0.0,0.0,99,0.05,,---,0.05,VWS V14.01,2013-08-13 09:36:00,
2013-08-13 05:41:00,64.7,64.4,29.80,NNW,347,0.0,1.0,99,0.06,,---,0.06,VWS V14.01,2013-08-13 09:41:00,
2013-08-13 05:46:00,64.7,64.4,29.80,NE,55,0.0,1.0,99,0.08,,---,0.08,VWS V14.01,2013-08-13 09:46:00,
2013-08-13 05:51:00,64.6,64.0,29.80,NE,53,0.0,1.0,98,0.08,,---,0.08,VWS V14.01,2013-08-13 09:51:00,
2013-08-13 05:56:00,64.6,64.0,29.80,NNW,337,0.0,1.0,98,0.09,,---,0.09,VWS V14.01,2013-08-13 09:56:00,
2013-08-13 06:00:00,64.1,63.5,29.80,West,280,0.0,1.0,98,0.01,,---,0.01,VWS V14.01,2013-08-13 10:00:00,
2013-08-13 06:01:00,64.6,64.0,29.80,SW,224,0.0,1.0,98,0.08,,---,0.09,VWS V14.01,2013-08-13 10:01:00,
2013-08-13 06:06:00,64.6,64.0,29.80,SW,216,0.0,1.0,98,0.08,,---,0.09,VWS V14.01,2013-08-13 10:06:00,
2013-08-13 06:11:00,64.6,64.0,29.80,SW,216,0.0,1.0,98,0.08,,---,0.09,VWS V14.01,2013-08-13 10:11:00,
2013-08-13 06:16:00,64.7,64.1,29.80,SW,216,0.0,1.0,98,0.08,,---,0.09,VWS V14.01,2013-08-13 10:16:00,
2013-08-13 06:21:00,64.7,64.1,29.80,SW,216,0.0,1.0,98,0.08,,---,0.09,VWS V14.01,2013-08-13 10:21:00,
2013-08-13 06:26:00,64.7,64.1,29.79,SW,216,0.0,1.0,98,0.08,,---,0.09,VWS V14.01,2013-08-13 10:26:00,
2013-08-13 06:30:00,64.5,64.2,29.80,NNW,347,0.0,1.0,99,0.04,,---,0.04,VWS V14.01,2013-08-13 10:30:00,
2013-08-13 06:31:00,64.7,64.1,29.79,SW,216,0.0,0.0,98,0.05,,---,0.09,VWS V14.01,2013-08-13 10:31:00,
2013-08-13 06:36:00,64.6,64.0,29.79,SW,216,0.0,0.0,98,0.05,,---,0.09,VWS V14.01,2013-08-13 10:36:00,
2013-08-13 06:40:00,64.7,64.1,29.79,SW,215,0.0,0.0,98,0.05,,---,0.09,VWS V14.01,2013-08-13 10:40:00,
2013-08-13 06:46:00,64.7,64.1,29.79,SW,216,0.0,0.0,98,0.05,,---,0.09,VWS V14.01,2013-08-13 10:46:00,
2013-08-13 06:50:00,64.7,64.1,29.79,SW,215,0.0,0.0,98,0.05,,---,0.09,VWS V14.01,2013-08-13 10:50:00,
2013-08-13 06:55:00,64.7,64.1,29.79,SW,215,0.0,0.0,98,0.05,,---,0.09,VWS V14.01,2013-08-13 10:55:00,
2013-08-13 07:00:00,64.8,64.2,29.79,SW,216,0.0,0.0,98,0.00,,---,0.09,VWS V14.01,2013-08-13 11:00:00,
2013-08-13 07:05:00,65.0,64.7,29.79,SW,215,0.0,0.0,99,0.00,,---,0.09,VWS V14.01,2013-08-13 11:05:00,
2013-08-13 07:10:00,65.2,64.9,29.80,North,6,1.0,2.0,99,0.00,,---,0.09,VWS V14.01,2013-08-13 11:10:00,
2013-08-13 07:15:00,65.0,64.7,29.81,NW,310,2.0,4.0,99,0.00,,---,0.09,VWS V14.01,2013-08-13 11:15:00,
2013-08-13 07:20:00,65.1,64.5,29.80,ESE,114,0.0,4.0,98,0.00,,---,0.09,VWS V14.01,2013-08-13 11:20:00,
2013-08-13 07:25:00,65.2,64.6,29.80,ESE,114,0.0,4.0,98,0.00,,---,0.09,VWS V14.01,2013-08-13 11:25:00,
2013-08-13 07:30:00,65.2,64.6,29.81,SSE,167,0.0,0.0,98,0.00,,---,0.09,VWS V14.01,2013-08-13 11:30:00,
2013-08-13 07:35:00,65.2,64.6,29.81,SSE,166,0.0,0.0,98,0.00,,---,0.09,VWS V14.01,2013-08-13 11:35:00,
2013-08-13 07:40:00,65.2,64.6,29.80,SSE,166,0.0,0.0,98,0.00,,---,0.09,VWS V14.01,2013-08-13 11:40:00,
2013-08-13 07:45:00,65.2,64.6,29.80,SSE,166,0.0,0.0,98,0.00,,---,0.09,VWS V14.01,2013-08-13 11:45:00,
2013-08-13 07:50:00,65.2,64.6,29.80,SSE,166,0.0,0.0,98,0.00,,---,0.09,VWS V14.01,2013-08-13 11:50:00,
2013-08-13 07:55:00,65.2,64.6,29.80,East,95,0.0,0.0,98,0.01,,---,0.10,VWS V14.01,2013-08-13 11:55:00,
2013-08-13 08:00:00,65.2,64.6,29.80,ENE,77,0.0,0.0,98,0.01,,---,0.10,VWS V14.01,2013-08-13 12:00:00,
2013-08-13 08:05:00,65.2,64.3,29.80,NW,311,0.0,1.0,97,0.01,,---,0.10,VWS V14.01,2013-08-13 12:05:00,
2013-08-13 08:10:00,65.4,64.8,29.79,NW,312,0.0,1.0,98,0.01,,---,0.10,VWS V14.01,2013-08-13 12:10:00,
2013-08-13 08:15:00,65.4,64.8,29.78,NW,312,0.0,1.0,98,0.01,,---,0.10,VWS V14.01,2013-08-13 12:15:00,
2013-08-13 08:20:00,65.5,64.9,29.78,NW,312,0.0,1.0,98,0.01,,---,0.10,VWS V14.01,2013-08-13 12:20:00,
2013-08-13 08:25:00,65.6,65.0,29.78,SW,229,0.0,1.0,98,0.01,,---,0.10,VWS V14.01,2013-08-13 12:25:00,
2013-08-13 08:30:00,65.7,65.1,29.78,ESE,104,0.0,0.0,98,0.01,,---,0.10,VWS V14.01,2013-08-13 12:30:00,
2013-08-13 08:35:00,65.9,65.3,29.78,ESE,104,0.0,0.0,98,0.01,,---,0.10,VWS V14.01,2013-08-13 12:35:00,
2013-08-13 08:40:00,66.0,65.4,29.78,SSE,150,0.0,0.0,98,0.01,,---,0.10,VWS V14.01,2013-08-13 12:40:00,
2013-08-13 08:45:00,66.1,65.5,29.78,SW,228,0.0,1.0,98,0.01,,---,0.10,VWS V14.01,2013-08-13 12:45:00,
2013-08-13 08:50:00,66.2,65.3,29.78,SW,225,0.0,1.0,97,0.01,,---,0.10,VWS V14.01,2013-08-13 12:50:00,
2013-08-13 08:55:00,66.3,65.4,29.79,South,184,0.0,1.0,97,0.01,,---,0.10,VWS V14.01,2013-08-13 12:55:00,
2013-08-13 09:00:00,66.4,65.5,29.78,West,271,1.0,1.0,97,0.00,,---,0.10,VWS V14.01,2013-08-13 13:00:00,
2013-08-13 09:05:00,66.5,65.6,29.79,NW,322,0.0,1.0,97,0.00,,---,0.10,VWS V14.01,2013-08-13 13:05:00,
2013-08-13 09:10:00,66.6,65.7,29.79,NW,318,0.0,1.0,97,0.00,,---,0.10,VWS V14.01,2013-08-13 13:10:00,
2013-08-13 09:15:00,66.8,65.6,29.79,NNW,329,0.0,1.0,96,0.00,,---,0.10,VWS V14.01,2013-08-13 13:15:00,
2013-08-13 09:20:00,67.1,65.9,29.79,ENE,59,1.0,1.0,96,0.00,,---,0.10,VWS V14.01,2013-08-13 13:20:00,
2013-08-13 09:25:00,67.2,66.0,29.78,NNW,340,0.0,1.0,96,0.00,,---,0.10,VWS V14.01,2013-08-13 13:25:00,
2013-08-13 09:30:00,67.3,65.8,29.79,NNW,328,0.0,1.0,95,0.00,,---,0.10,VWS V14.01,2013-08-13 13:30:00,
2013-08-13 09:35:00,67.6,66.1,29.78,ENE,64,0.0,1.0,95,0.00,,---,0.10,VWS V14.01,2013-08-13 13:35:00,
2013-08-13 09:40:00,67.9,66.4,29.78,ENE,61,0.0,1.0,95,0.00,,---,0.10,VWS V14.01,2013-08-13 13:40:00,
2013-08-13 09:45:00,68.2,66.1,29.78,ENE,62,0.0,1.0,93,0.00,,---,0.10,VWS V14.01,2013-08-13 13:45:00,
2013-08-13 09:50:00,68.6,66.5,29.78,NE,51,1.0,1.0,93,0.00,,---,0.10,VWS V14.01,2013-08-13 13:50:00,
2013-08-13 09:55:00,69.0,66.9,29.78,ENE,64,0.0,1.0,93,0.00,,---,0.10,VWS V14.01,2013-08-13 13:55:00,
2013-08-13 10:00:00,69.5,67.4,29.78,SE,139,0.0,0.0,93,0.00,,---,0.10,VWS V14.01,2013-08-13 14:00:00,
2013-08-13 10:05:00,69.9,67.2,29.78,ESE,121,0.0,1.0,91,0.00,,---,0.10,VWS V14.01,2013-08-13 14:05:00,
2013-08-13 10:10:00,70.0,67.3,29.78,ESE,117,0.0,1.0,91,0.00,,---,0.10,VWS V14.01,2013-08-13 14:10:00,
2013-08-13 10:15:00,70.0,66.9,29.78,North,6,0.0,1.0,90,0.00,,---,0.10,VWS V14.01,2013-08-13 14:15:00,
2013-08-13 10:20:00,69.8,67.1,29.77,ESE,117,0.0,1.0,91,0.00,,---,0.10,VWS V14.01,2013-08-13 14:20:00,
2013-08-13 10:25:00,69.7,66.6,29.77,ESE,117,0.0,1.0,90,0.00,,---,0.10,VWS V14.01,2013-08-13 14:25:00,
2013-08-13 10:30:00,69.8,67.1,29.77,ESE,117,0.0,0.0,91,0.00,,---,0.10,VWS V14.01,2013-08-13 14:30:00,
2013-08-13 10:35:00,69.8,66.7,29.77,ESE,116,0.0,0.0,90,0.00,,---,0.10,VWS V14.01,2013-08-13 14:35:00,
2013-08-13 10:40:00,70.3,66.9,29.78,SE,132,0.0,0.0,89,0.00,,---,0.10,VWS V14.01,2013-08-13 14:40:00,
2013-08-13 10:45:00,70.7,67.6,29.77,SE,133,0.0,0.0,90,0.00,,---,0.10,VWS V14.01,2013-08-13 14:45:00,
2013-08-13 10:50:00,71.3,67.2,29.78,West,259,0.0,1.0,87,0.00,,---,0.10,VWS V14.01,2013-08-13 14:50:00,
2013-08-13 10:55:00,71.8,67.4,29.77,South,175,0.0,1.0,86,0.00,,---,0.10,VWS V14.01,2013-08-13 14:55:00,
2013-08-13 11:00:00,72.0,67.6,29.77,South,175,0.0,0.0,86,0.00,,---,0.10,VWS V14.01,2013-08-13 15:00:00,
2013-08-13 11:05:00,72.1,67.0,29.78,SSE,151,0.0,0.0,84,0.00,,---,0.10,VWS V14.01,2013-08-13 15:05:00,
2013-08-13 11:10:00,72.2,67.1,29.78,NNW,347,0.0,1.0,84,0.00,,---,0.10,VWS V14.01,2013-08-13 15:10:00,
2013-08-13 11:15:00,72.3,66.2,29.78,SSW,213,0.0,1.0,81,0.00,,---,0.10,VWS V14.01,2013-08-13 15:15:00,
2013-08-13 11:20:00,72.3,66.8,29.77,ENE,60,0.0,1.0,83,0.00,,---,0.10,VWS V14.01,2013-08-13 15:20:00,
2013-08-13 11:25:00,72.6,66.8,29.77,NNW,339,0.0,2.0,82,0.00,,---,0.10,VWS V14.01,2013-08-13 15:25:00,
2013-08-13 11:30:00,72.6,66.8,29.77,NE,50,0.0,0.0,82,0.00,,---,0.10,VWS V14.01,2013-08-13 15:30:00,
2013-08-13 11:35:00,72.6,66.8,29.77,ENE,67,1.0,3.0,82,0.00,,---,0.10,VWS V14.01,2013-08-13 15:35:00,
2013-08-13 11:40:00,73.2,67.0,29.77,ENE,72,0.0,3.0,81,0.00,,---,0.10,VWS V14.01,2013-08-13 15:40:00,
2013-08-13 11:45:00,73.9,67.3,29.77,ESE,113,0.0,3.0,80,0.00,,---,0.10,VWS V14.01,2013-08-13 15:45:00,
2013-08-13 11:50:00,74.6,67.7,29.77,North,352,0.0,3.0,79,0.00,,---,0.10,VWS V14.01,2013-08-13 15:50:00,
2013-08-13 11:55:00,75.5,67.8,29.77,North,6,2.0,3.0,77,0.00,,---,0.10,VWS V14.01,2013-08-13 15:55:00,
2013-08-13 12:00:00,75.7,67.2,29.77,SSE,162,1.0,1.0,75,0.00,,---,0.10,VWS V14.01,2013-08-13 16:00:00,
2013-08-13 12:05:00,75.9,66.6,29.77,ESE,111,0.0,1.0,73,0.00,,---,0.10,VWS V14.01,2013-08-13 16:05:00,
2013-08-13 12:10:00,76.5,67.2,29.77,North,6,2.0,2.0,73,0.00,,---,0.10,VWS V14.01,2013-08-13 16:10:00,
2013-08-13 12:15:00,76.3,66.2,29.77,NNE,26,0.0,3.0,71,0.00,,---,0.10,VWS V14.01,2013-08-13 16:15:00,
2013-08-13 12:20:00,76.5,67.6,29.77,NE,39,0.0,3.0,74,0.00,,---,0.10,VWS V14.01,2013-08-13 16:20:00,
2013-08-13 12:25:00,76.4,67.1,29.76,NE,40,0.0,3.0,73,0.00,,---,0.10,VWS V14.01,2013-08-13 16:25:00,
2013-08-13 12:30:00,76.9,67.6,29.76,NW,322,0.0,0.0,73,0.00,,---,0.10,VWS V14.01,2013-08-13 16:30:00,
2013-08-13 12:35:00,77.2,68.3,29.77,WNW,298,0.0,1.0,74,0.00,,---,0.10,VWS V14.01,2013-08-13 16:35:00,
2013-08-13 12:40:00,77.2,67.5,29.77,SW,227,0.0,2.0,72,0.00,,---,0.10,VWS V14.01,2013-08-13 16:40:00,
2013-08-13 12:45:00,77.3,67.2,29.77,NNW,346,0.0,2.0,71,0.00,,---,0.10,VWS V14.01,2013-08-13 16:45:00,
2013-08-13 12:50:00,77.1,68.2,29.76,North,356,0.0,2.0,74,0.00,,---,0.10,VWS V14.01,2013-08-13 16:50:00,
2013-08-13 12:55:00,77.5,68.6,29.76,SE,127,0.0,2.0,74,0.00,,---,0.10,VWS V14.01,2013-08-13 16:55:00,
2013-08-13 13:00:00,77.7,68.4,29.76,SW,221,0.0,0.0,73,0.00,,---,0.10,VWS V14.01,2013-08-13 17:00:00,
2013-08-13 13:05:00,78.4,68.6,29.75,SW,219,0.0,3.0,72,0.00,,---,0.10,VWS V14.01,2013-08-13 17:05:00,
2013-08-13 13:12:00,79.5,68.9,29.75,SSW,210,1.0,5.0,70,0.00,,---,0.10,VWS V14.01,2013-08-13 17:12:00,
2013-08-13 13:17:00,79.7,67.3,29.75,SSW,210,0.0,6.0,66,0.00,,---,0.10,VWS V14.01,2013-08-13 17:17:00,
2013-08-13 13:22:00,79.7,67.8,29.75,NE,37,1.0,6.0,67,0.00,,---,0.10,VWS V14.01,2013-08-13 17:22:00,
2013-08-13 13:27:00,80.1,68.6,29.75,ESE,109,0.0,6.0,68,0.00,,---,0.10,VWS V14.01,2013-08-13 17:27:00,
2013-08-13 13:30:00,76.9,67.6,29.76,NW,322,0.0,3.0,73,0.00,,---,0.10,VWS V14.01,2013-08-13 17:30:00,
2013-08-13 13:32:00,81.0,68.6,29.75,SW,219,0.0,10.0,66,0.00,,---,0.10,VWS V14.01,2013-08-13 17:32:00,
2013-08-13 13:37:00,81.8,68.4,29.75,East,96,1.0,10.0,64,0.00,,---,0.10,VWS V14.01,2013-08-13 17:37:00,
2013-08-13 13:42:00,81.4,67.1,29.75,SSW,198,0.0,10.0,62,0.00,,---,0.10,VWS V14.01,2013-08-13 17:42:00,
2013-08-13 13:47:00,81.8,68.0,29.74,SW,228,0.0,10.0,63,0.00,,---,0.10,VWS V14.01,2013-08-13 17:47:00,
2013-08-13 13:52:00,82.4,66.7,29.74,SSW,213,2.0,10.0,59,0.00,,---,0.10,VWS V14.01,2013-08-13 17:52:00,
2013-08-13 13:57:00,82.7,67.4,29.74,NW,309,0.0,10.0,60,0.00,,---,0.10,VWS V14.01,2013-08-13 17:57:00,
2013-08-13 14:00:00,77.7,68.4,29.76,East,82,0.0,2.0,73,0.00,,---,0.10,VWS V14.01,2013-08-13 18:00:00,
2013-08-13 14:02:00,83.1,66.8,29.74,WNW,295,1.0,6.0,58,0.00,,---,0.10,VWS V14.01,2013-08-13 18:02:00,
2013-08-13 14:07:00,82.9,65.1,29.74,North,356,0.0,6.0,55,0.00,,---,0.10,VWS V14.01,2013-08-13 18:07:00,
2013-08-13 14:12:00,82.5,66.7,29.75,East,86,1.0,6.0,59,0.00,,---,0.10,VWS V14.01,2013-08-13 18:12:00,
2013-08-13 14:17:00,81.6,66.4,29.74,SE,124,0.0,6.0,60,0.00,,---,0.10,VWS V14.01,2013-08-13 18:17:00,
2013-08-13 14:22:00,81.4,66.2,29.74,NNE,24,2.0,6.0,60,0.00,,---,0.10,VWS V14.01,2013-08-13 18:22:00,
2013-08-13 14:27:00,82.0,67.2,29.74,WSW,249,1.0,6.0,61,0.00,,---,0.10,VWS V14.01,2013-08-13 18:27:00,
2013-08-13 14:30:00,80.7,69.6,29.75,West,259,1.0,6.0,69,0.00,,---,0.10,VWS V14.01,2013-08-13 18:30:00,
2013-08-13 14:32:00,82.6,66.8,29.73,NW,320,3.0,5.0,59,0.00,,---,0.10,VWS V14.01,2013-08-13 18:32:00,
2013-08-13 14:37:00,82.7,65.9,29.73,North,349,1.0,5.0,57,0.00,,---,0.10,VWS V14.01,2013-08-13 18:37:00,
2013-08-13 14:42:00,83.1,66.8,29.73,NW,307,1.0,5.0,58,0.00,,---,0.10,VWS V14.01,2013-08-13 18:42:00,
2013-08-13 14:47:00,83.3,64.9,29.73,SW,217,0.0,5.0,54,0.00,,---,0.10,VWS V14.01,2013-08-13 18:47:00,
2013-08-13 14:52:00,83.4,66.1,29.72,SSW,207,3.0,5.0,56,0.00,,---,0.10,VWS V14.01,2013-08-13 18:52:00,
2013-08-13 14:57:00,83.4,65.6,29.72,SW,224,2.0,5.0,55,0.00,,---,0.10,VWS V14.01,2013-08-13 18:57:00,
2013-08-13 15:00:00,83.0,67.7,29.74,North,355,0.0,10.0,60,0.00,,---,0.10,VWS V14.01,2013-08-13 19:00:00,
2013-08-13 15:02:00,83.6,66.8,29.72,SW,217,0.0,1.0,57,0.00,,---,0.10,VWS V14.01,2013-08-13 19:02:00,
2013-08-13 15:07:00,83.9,66.0,29.72,WSW,240,3.0,6.0,55,0.00,,---,0.10,VWS V14.01,2013-08-13 19:07:00,
2013-08-13 15:12:00,84.0,66.6,29.72,SSW,198,3.0,6.0,56,0.00,,---,0.10,VWS V14.01,2013-08-13 19:12:00,
2013-08-13 15:17:00,84.3,65.9,29.72,NW,317,0.0,6.0,54,0.00,,---,0.10,VWS V14.01,2013-08-13 19:17:00,
2013-08-13 15:22:00,84.7,66.2,29.72,North,7,2.0,6.0,54,0.00,,---,0.10,VWS V14.01,2013-08-13 19:22:00,
2013-08-13 15:27:00,84.6,64.5,29.72,NE,56,3.0,7.0,51,0.00,,---,0.10,VWS V14.01,2013-08-13 19:27:00,
2013-08-13 15:30:00,82.2,66.9,29.74,NNW,347,2.0,6.0,60,0.00,,---,0.10,VWS V14.01,2013-08-13 19:30:00,
2013-08-13 15:32:00,84.6,65.1,29.72,SE,140,1.0,4.0,52,0.00,,---,0.10,VWS V14.01,2013-08-13 19:32:00,
2013-08-13 15:37:00,84.9,64.8,29.72,SW,221,0.0,6.0,51,0.00,,---,0.10,VWS V14.01,2013-08-13 19:37:00,
2013-08-13 15:42:00,85.2,63.9,29.72,NW,309,3.0,6.0,49,0.00,,---,0.10,VWS V14.01,2013-08-13 19:42:00,
2013-08-13 15:47:00,85.0,63.1,29.71,SW,219,1.0,6.0,48,0.00,,---,0.10,VWS V14.01,2013-08-13 19:47:00,
2013-08-13 15:52:00,85.0,63.1,29.71,NNE,20,5.0,6.0,48,0.00,,---,0.10,VWS V14.01,2013-08-13 19:52:00,
2013-08-13 15:57:00,84.6,62.8,29.71,SE,132,2.0,6.0,48,0.00,,---,0.10,VWS V14.01,2013-08-13 19:57:00,
2013-08-13 16:00:00,83.4,65.0,29.72,SW,214,1.0,5.0,54,0.00,,---,0.10,VWS V14.01,2013-08-13 20:00:00,
2013-08-13 16:02:00,84.7,62.3,29.71,NNW,332,4.0,5.0,47,0.00,,---,0.10,VWS V14.01,2013-08-13 20:02:00,
2013-08-13 16:07:00,84.5,62.1,29.71,NNW,344,5.0,7.0,47,0.00,,---,0.10,VWS V14.01,2013-08-13 20:07:00,
2013-08-13 16:12:00,84.4,62.0,29.71,South,187,2.0,8.0,47,0.00,,---,0.10,VWS V14.01,2013-08-13 20:12:00,
2013-08-13 16:17:00,84.0,61.6,29.72,NNW,338,1.0,8.0,47,0.00,,---,0.10,VWS V14.01,2013-08-13 20:17:00,
2013-08-13 16:22:00,84.2,62.4,29.72,NNE,25,3.0,8.0,48,0.00,,---,0.10,VWS V14.01,2013-08-13 20:22:00,
2013-08-13 16:27:00,84.3,61.9,29.72,North,351,4.0,8.0,47,0.00,,---,0.10,VWS V14.01,2013-08-13 20:27:00,
2013-08-13 16:30:00,84.5,64.4,29.72,NNE,23,1.0,8.0,51,0.00,,---,0.10,VWS V14.01,2013-08-13 20:30:00,
2013-08-13 16:32:00,83.7,62.0,29.72,South,188,1.0,5.0,48,0.00,,---,0.10,VWS V14.01,2013-08-13 20:32:00,
2013-08-13 16:37:00,82.9,62.4,29.72,West,274,1.0,9.0,50,0.00,,---,0.10,VWS V14.01,2013-08-13 20:37:00,
2013-08-13 16:42:00,82.5,62.6,29.72,ENE,58,3.0,10.0,51,0.00,,---,0.10,VWS V14.01,2013-08-13 20:42:00,
2013-08-13 16:47:00,82.1,62.8,29.72,NNE,18,3.0,10.0,52,0.00,,---,0.10,VWS V14.01,2013-08-13 20:47:00,
2013-08-13 16:52:00,82.0,62.1,29.72,NW,321,3.0,10.0,51,0.00,,---,0.10,VWS V14.01,2013-08-13 20:52:00,
2013-08-13 16:57:00,81.9,63.1,29.73,NNW,331,3.0,10.0,53,0.00,,---,0.10,VWS V14.01,2013-08-13 20:57:00,
2013-08-13 17:00:00,84.7,64.0,29.71,West,273,1.0,6.0,50,0.00,,---,0.10,VWS V14.01,2013-08-13 21:00:00,
2013-08-13 17:02:00,81.7,62.9,29.73,NNW,330,2.0,4.0,53,0.00,,---,0.10,VWS V14.01,2013-08-13 21:02:00,
2013-08-13 17:07:00,81.6,61.2,29.73,SW,234,7.0,8.0,50,0.00,,---,0.10,VWS V14.01,2013-08-13 21:07:00,
2013-08-13 17:12:00,81.1,60.2,29.73,NNE,20,5.0,9.0,49,0.00,,---,0.10,VWS V14.01,2013-08-13 21:12:00,
2013-08-13 17:17:00,80.9,60.5,29.73,NE,39,4.0,9.0,50,0.00,,---,0.10,VWS V14.01,2013-08-13 21:17:00,
2013-08-13 17:22:00,80.8,61.0,29.73,NNE,24,1.0,10.0,51,0.00,,---,0.10,VWS V14.01,2013-08-13 21:22:00,
2013-08-13 17:27:00,80.6,60.3,29.73,NE,41,2.0,10.0,50,0.00,,---,0.10,VWS V14.01,2013-08-13 21:27:00,
2013-08-13 17:30:00,84.1,62.3,29.72,West,269,2.0,8.0,48,0.00,,---,0.10,VWS V14.01,2013-08-13 21:30:00,
2013-08-13 17:32:00,79.7,60.0,29.73,North,354,1.0,3.0,51,0.00,,---,0.10,VWS V14.01,2013-08-13 21:32:00,
2013-08-13 17:37:00,79.0,59.9,29.73,East,94,1.0,6.0,52,0.00,,---,0.10,VWS V14.01,2013-08-13 21:37:00,
2013-08-13 17:42:00,79.4,59.7,29.73,NW,317,1.0,10.0,51,0.00,,---,0.10,VWS V14.01,2013-08-13 21:42:00,
2013-08-13 17:47:00,79.6,60.4,29.73,East,83,1.0,10.0,52,0.00,,---,0.10,VWS V14.01,2013-08-13 21:47:00,
2013-08-13 17:52:00,79.6,59.9,29.73,NW,324,1.0,10.0,51,0.00,,---,0.10,VWS V14.01,2013-08-13 21:52:00,
2013-08-13 17:57:00,79.6,60.4,29.74,North,3,2.0,10.0,52,0.00,,---,0.10,VWS V14.01,2013-08-13 21:57:00,
2013-08-13 18:00:00,81.7,61.8,29.73,East,101,1.0,10.0,51,0.00,,---,0.10,VWS V14.01,2013-08-13 22:00:00,
2013-08-13 18:02:00,79.6,61.0,29.74,NNW,328,0.0,3.0,53,0.00,,---,0.10,VWS V14.01,2013-08-13 22:02:00,
2013-08-13 18:07:00,79.9,61.3,29.74,NW,309,0.0,3.0,53,0.00,,---,0.10,VWS V14.01,2013-08-13 22:07:00,
2013-08-13 18:12:00,79.8,60.1,29.74,SE,141,0.0,6.0,51,0.00,,---,0.10,VWS V14.01,2013-08-13 22:12:00,
2013-08-13 18:17:00,79.5,60.9,29.74,West,276,0.0,6.0,53,0.00,,---,0.10,VWS V14.01,2013-08-13 22:17:00,
2013-08-13 18:22:00,78.7,61.2,29.73,NNE,25,0.0,7.0,55,0.00,,---,0.10,VWS V14.01,2013-08-13 22:22:00,
2013-08-13 18:27:00,77.8,59.8,29.73,North,355,2.0,8.0,54,0.00,,---,0.10,VWS V14.01,2013-08-13 22:27:00,
2013-08-13 18:30:00,80.2,60.5,29.73,NW,308,3.0,10.0,51,0.00,,---,0.10,VWS V14.01,2013-08-13 22:30:00,
2013-08-13 18:32:00,77.5,61.1,29.74,NW,323,0.0,2.0,57,0.00,,---,0.10,VWS V14.01,2013-08-13 22:32:00,
2013-08-13 18:37:00,77.3,61.4,29.74,NNE,18,1.0,4.0,58,0.00,,---,0.10,VWS V14.01,2013-08-13 22:37:00,
2013-08-13 18:42:00,77.2,60.8,29.74,NNW,340,0.0,5.0,57,0.00,,---,0.10,VWS V14.01,2013-08-13 22:42:00,
2013-08-13 18:47:00,77.0,60.6,29.75,NW,306,0.0,5.0,57,0.00,,---,0.10,VWS V14.01,2013-08-13 22:47:00,
2013-08-13 18:52:00,76.7,60.3,29.75,ENE,58,0.0,5.0,57,0.00,,---,0.10,VWS V14.01,2013-08-13 22:52:00,
2013-08-13 18:57:00,76.5,60.6,29.75,NNW,340,3.0,5.0,58,0.00,,---,0.10,VWS V14.01,2013-08-13 22:57:00,
2013-08-13 19:00:00,79.6,60.4,29.74,SSW,202,0.0,10.0,52,0.00,,---,0.10,VWS V14.01,2013-08-13 23:00:00,
2013-08-13 19:02:00,76.1,58.8,29.75,WNW,296,1.0,4.0,55,0.00,,---,0.10,VWS V14.01,2013-08-13 23:02:00,
2013-08-13 19:07:00,75.7,58.9,29.75,NW,312,3.0,6.0,56,0.00,,---,0.10,VWS V14.01,2013-08-13 23:07:00,
2013-08-13 19:12:00,75.3,58.0,29.76,NW,322,1.0,6.0,55,0.00,,---,0.10,VWS V14.01,2013-08-13 23:12:00,
2013-08-13 19:17:00,75.0,58.3,29.76,West,266,0.0,6.0,56,0.00,,---,0.10,VWS V14.01,2013-08-13 23:17:00,
2013-08-13 19:22:00,74.7,57.5,29.76,East,97,0.0,6.0,55,0.00,,---,0.10,VWS V14.01,2013-08-13 23:22:00,
2013-08-13 19:27:00,74.5,57.8,29.76,North,352,0.0,6.0,56,0.00,,---,0.10,VWS V14.01,2013-08-13 23:27:00,
2013-08-13 19:30:00,77.5,60.6,29.74,NW,309,1.0,8.0,56,0.00,,---,0.10,VWS V14.01,2013-08-13 23:30:00,
2013-08-13 19:32:00,74.2,57.5,29.77,NNE,22,0.0,3.0,56,0.00,,---,0.10,VWS V14.01,2013-08-13 23:32:00,
2013-08-13 19:37:00,73.9,57.2,29.78,WNW,298,2.0,5.0,56,0.00,,---,0.10,VWS V14.01,2013-08-13 23:37:00,
2013-08-13 19:42:00,73.7,57.5,29.77,SW,235,0.0,5.0,57,0.00,,---,0.10,VWS V14.01,2013-08-13 23:42:00,
2013-08-13 19:47:00,73.4,57.7,29.77,NNE,17,0.0,5.0,58,0.00,,---,0.10,VWS V14.01,2013-08-13 23:47:00,
2013-08-13 19:52:00,73.1,57.5,29.78,NW,326,1.0,6.0,58,0.00,,---,0.10,VWS V14.01,2013-08-13 23:52:00,
2013-08-13 19:57:00,72.9,57.3,29.78,NE,56,0.0,7.0,58,0.00,,---,0.10,VWS V14.01,2013-08-13 23:57:00,
2013-08-13 20:00:00,76.2,59.4,29.75,NNE,26,4.0,8.0,56,0.00,,---,0.10,VWS V14.01,2013-08-14 00:00:00,
2013-08-13 20:02:00,72.5,57.8,29.78,NNW,330,0.0,2.0,60,0.00,,---,0.10,VWS V14.01,2013-08-14 00:02:00,
2013-08-13 20:07:00,72.0,57.4,29.78,NNW,337,1.0,3.0,60,0.00,,---,0.10,VWS V14.01,2013-08-14 00:07:00,
2013-08-13 20:12:00,71.8,56.7,29.79,South,189,0.0,6.0,59,0.00,,---,0.10,VWS V14.01,2013-08-14 00:12:00,
2013-08-13 20:17:00,71.5,56.0,29.79,North,9,0.0,6.0,58,0.00,,---,0.10,VWS V14.01,2013-08-14 00:17:00,
2013-08-13 20:22:00,71.2,55.7,29.79,NNW,336,0.0,6.0,58,0.00,,---,0.10,VWS V14.01,2013-08-14 00:22:00,
2013-08-13 20:27:00,70.9,55.4,29.80,ESE,113,0.0,6.0,58,0.00,,---,0.10,VWS V14.01,2013-08-14 00:27:00,
2013-08-13 20:30:00,74.3,57.6,29.77,North,360,1.0,6.0,56,0.00,,---,0.10,VWS V14.01,2013-08-14 00:30:00,
2013-08-13 20:32:00,70.8,54.8,29.80,North,359,1.0,8.0,57,0.00,,---,0.10,VWS V14.01,2013-08-14 00:32:00,
2013-08-13 20:37:00,70.8,54.8,29.80,NNW,328,0.0,8.0,57,0.00,,---,0.10,VWS V14.01,2013-08-14 00:37:00,
2013-08-13 20:42:00,70.6,54.6,29.80,NW,323,1.0,8.0,57,0.00,,---,0.10,VWS V14.01,2013-08-14 00:42:00,
2013-08-13 20:47:00,70.3,54.8,29.81,North,359,0.0,8.0,58,0.00,,---,0.10,VWS V14.01,2013-08-14 00:47:00,
2013-08-13 20:52:00,70.0,54.6,29.81,North,354,0.0,8.0,58,0.00,,---,0.10,VWS V14.01,2013-08-14 00:52:00,
2013-08-13 20:57:00,69.7,54.8,29.81,NW,326,1.0,8.0,59,0.00,,---,0.10,VWS V14.01,2013-08-14 00:57:00,
2013-08-13 21:00:00,72.6,57.5,29.78,East,89,0.0,7.0,59,0.00,,---,0.10,VWS V14.01,2013-08-14 01:00:00,
2013-08-13 21:02:00,69.6,54.7,29.81,NW,321,0.0,2.0,59,0.00,,---,0.10,VWS V14.01,2013-08-14 01:02:00,
2013-08-13 21:07:00,69.4,54.5,29.81,NNE,25,0.0,4.0,59,0.00,,---,0.10,VWS V14.01,2013-08-14 01:07:00,
2013-08-13 21:12:00,69.0,54.5,29.82,SE,141,0.0,4.0,60,0.00,,---,0.10,VWS V14.01,2013-08-14 01:12:00,
2013-08-13 21:17:00,68.8,54.8,29.82,NNW,347,0.0,4.0,61,0.00,,---,0.10,VWS V14.01,2013-08-14 01:17:00,
2013-08-13 21:21:00,68.4,54.4,29.82,NNW,343,0.0,4.0,61,0.00,,---,0.10,VWS V14.01,2013-08-14 01:21:00,
2013-08-13 21:26:00,68.1,55.0,29.82,NNW,340,0.0,4.0,63,0.00,,---,0.10,VWS V14.01,2013-08-14 01:26:00,
2013-08-13 21:30:00,70.8,54.8,29.80,NNW,345,0.0,8.0,57,0.00,,---,0.10,VWS V14.01,2013-08-14 01:30:00,
2013-08-13 21:31:00,67.8,54.8,29.82,NW,306,1.0,2.0,63,0.00,,---,0.10,VWS V14.01,2013-08-14 01:31:00,
2013-08-13 21:36:00,67.7,54.2,29.82,NNW,331,0.0,3.0,62,0.00,,---,0.10,VWS V14.01,2013-08-14 01:36:00,
2013-08-13 21:41:00,67.7,54.7,29.83,North,10,0.0,4.0,63,0.00,,---,0.10,VWS V14.01,2013-08-14 01:41:00,
2013-08-13 21:46:00,67.4,54.4,29.83,NNW,329,1.0,4.0,63,0.00,,---,0.10,VWS V14.01,2013-08-14 01:46:00,
2013-08-13 21:51:00,67.2,54.6,29.83,NNE,30,0.0,4.0,64,0.00,,---,0.10,VWS V14.01,2013-08-14 01:51:00,
2013-08-13 21:56:00,67.0,54.0,29.83,NNW,333,0.0,4.0,63,0.00,,---,0.10,VWS V14.01,2013-08-14 01:56:00,
2013-08-13 22:00:00,69.7,54.8,29.81,WSW,258,1.0,8.0,59,0.00,,---,0.10,VWS V14.01,2013-08-14 02:00:00,
2013-08-13 22:01:00,66.8,53.8,29.83,NW,323,0.0,1.0,63,0.00,,---,0.10,VWS V14.01,2013-08-14 02:01:00,
2013-08-13 22:06:00,66.5,53.5,29.83,WSW,238,0.0,3.0,63,0.00,,---,0.10,VWS V14.01,2013-08-14 02:06:00,
2013-08-13 22:11:00,66.4,53.4,29.84,NNW,343,0.0,3.0,63,0.00,,---,0.10,VWS V14.01,2013-08-14 02:11:00,
2013-08-13 22:16:00,66.2,53.2,29.83,NW,316,1.0,3.0,63,0.00,,---,0.10,VWS V14.01,2013-08-14 02:16:00,
2013-08-13 22:21:00,66.0,52.6,29.84,NNW,345,2.0,5.0,62,0.00,,---,0.10,VWS V14.01,2013-08-14 02:21:00,
2013-08-13 22:26:00,66.0,52.6,29.84,NNE,20,1.0,6.0,62,0.00,,---,0.10,VWS V14.01,2013-08-14 02:26:00,
2013-08-13 22:30:00,67.9,54.8,29.82,North,4,0.0,4.0,63,0.00,,---,0.10,VWS V14.01,2013-08-14 02:30:00,
2013-08-13 22:31:00,65.9,52.5,29.84,NE,53,0.0,2.0,62,0.00,,---,0.10,VWS V14.01,2013-08-14 02:31:00,
2013-08-13 22:36:00,65.7,51.9,29.84,NNW,346,0.0,6.0,61,0.00,,---,0.10,VWS V14.01,2013-08-14 02:36:00,
2013-08-13 22:41:00,65.6,52.2,29.84,North,1,1.0,8.0,62,0.00,,---,0.10,VWS V14.01,2013-08-14 02:41:00,
2013-08-13 22:46:00,65.5,51.7,29.85,NNE,22,1.0,9.0,61,0.00,,---,0.10,VWS V14.01,2013-08-14 02:46:00,
2013-08-13 22:51:00,65.3,51.1,29.85,NNW,338,2.0,9.0,60,0.00,,---,0.10,VWS V14.01,2013-08-14 02:51:00,
2013-08-13 22:56:00,65.1,51.8,29.85,North,357,5.0,9.0,62,0.00,,---,0.10,VWS V14.01,2013-08-14 02:56:00,
2013-08-13 23:00:00,66.9,53.9,29.83,NNE,30,1.0,4.0,63,0.00,,---,0.10,VWS V14.01,2013-08-14 03:00:00,
2013-08-13 23:01:00,64.9,51.6,29.85,NE,36,1.0,4.0,62,0.00,,---,0.10,VWS V14.01,2013-08-14 03:01:00,
2013-08-13 23:06:00,64.7,51.0,29.85,East,94,1.0,6.0,61,0.00,,---,0.10,VWS V14.01,2013-08-14 03:06:00,
2013-08-13 23:11:00,64.5,49.9,29.86,NNE,13,0.0,9.0,59,0.00,,---,0.10,VWS V14.01,2013-08-14 03:11:00,
2013-08-13 23:16:00,64.4,49.8,29.86,NW,304,0.0,9.0,59,0.00,,---,0.10,VWS V14.01,2013-08-14 03:16:00,
2013-08-13 23:21:00,64.2,49.6,29.86,NNW,336,0.0,9.0,59,0.00,,---,0.10,VWS V14.01,2013-08-14 03:21:00,
2013-08-13 23:26:00,64.0,48.9,29.86,NW,308,0.0,9.0,58,0.00,,---,0.10,VWS V14.01,2013-08-14 03:26:00,
2013-08-13 23:30:00,66.0,52.2,29.84,NW,316,1.0,6.0,61,0.00,,---,0.10,VWS V14.01,2013-08-14 03:30:00,
2013-08-13 23:31:00,63.8,48.3,29.86,NW,314,1.0,5.0,57,0.00,,---,0.10,VWS V14.01,2013-08-14 03:31:00,
2013-08-13 23:37:00,63.5,48.0,29.86,NNW,333,2.0,8.0,57,0.00,,---,0.10,VWS V14.01,2013-08-14 03:37:00,
2013-08-13 23:42:00,63.4,47.5,29.86,North,1,3.0,8.0,56,0.00,,---,0.10,VWS V14.01,2013-08-14 03:42:00,
2013-08-13 23:47:00,63.4,47.5,29.86,NNW,328,2.0,11.0,56,0.00,,---,0.10,VWS V14.01,2013-08-14 03:47:00,
2013-08-13 23:52:00,63.1,47.2,29.86,NNW,330,6.0,11.0,56,0.00,,---,0.10,VWS V14.01,2013-08-14 03:52:00,
2013-08-13 23:57:00,62.9,47.5,29.86,South,169,1.0,11.0,57,0.00,,---,0.10,VWS V14.01,2013-08-14 03:57:00,